This is the latest recevied weather packets stored in our database for station/object WX7FGZ-5. If no packets are shown the sender has not sent any weather packets the latest 10 day(s).
| Time | Temp. | Humidity | Pressure | Rain* | Wind** | Luminosity | Snow |
|---|---|---|---|---|---|---|---|
| 1777695455 | 10° C | 33% | 1023.4 hPa | 0 mm | - | 0 W/m² | - |
| 1777694574 | 10.56° C | 32% | 1023.1 hPa | 0 mm | - | 0 W/m² | - |
| 1777694540 | 10° C | 32% | 1023 hPa | 0 mm | - | 0 W/m² | - |
| 1777694255 | 10° C | 32% | 1023 hPa | 0 mm | - | 0 W/m² | - |
| 1777693956 | 10° C | 33% | 1022.7 hPa | 0 mm | - | 0 W/m² | - |
| 1777693390 | 10° C | 35% | 1022.8 hPa | 0 mm | - | 0 W/m² | - |
| 1777693356 | 10° C | 35% | 1022.8 hPa | 0 mm | - | 0 W/m² | - |
| 1777693056 | 10° C | 35% | 1022.8 hPa | 0 mm | - | 0 W/m² | - |
| 1777692466 | 10° C | 35% | 1022.7 hPa | 0 mm | - | 0 W/m² | - |
| 1777691861 | 10.56° C | 35% | 1022.7 hPa | 0 mm | - | 0 W/m² | - |
| 1777691556 | 10.56° C | 34% | 1022.5 hPa | 0 mm | - | 0 W/m² | - |
| 1777691256 | 10.56° C | 34% | 1022.3 hPa | 0 mm | - | 0 W/m² | - |
| 1777690955 | 10.56° C | 34% | 1022.3 hPa | 0 mm | - | 0 W/m² | - |
| 1777690355 | 11.11° C | 32% | 1022.2 hPa | 0 mm | - | 0 W/m² | - |
| 1777690059 | 11.11° C | 32% | 1022 hPa | 0 mm | - | 0 W/m² | - |
| 1777689756 | 11.67° C | 31% | 1021.9 hPa | 0 mm | - | 0 W/m² | - |
| 1777689455 | 11.67° C | 31% | 1021.7 hPa | 0 mm | - | 0 W/m² | - |
| 1777689119 | 11.67° C | 30% | 1021.6 hPa | 0 mm | - | 0 W/m² | - |
| 1777688855 | 11.67° C | 30% | 1021.6 hPa | 0 mm | - | 0 W/m² | - |
| 1777688556 | 11.67° C | 30% | 1021.6 hPa | 0 mm | - | 0 W/m² | - |
| 1777688255 | 12.22° C | 29% | 1021.4 hPa | 0 mm | - | 0 W/m² | - |
| 1777687955 | 12.22° C | 29% | 1021.3 hPa | 0 mm | - | 5 W/m² | - |
| 1777687580 | 12.78° C | 28% | 1021.8 hPa | 0 mm | - | 7 W/m² | - |
| 1777687355 | 12.78° C | 28% | 1021.8 hPa | 0 mm | - | 7 W/m² | - |
| 1777687056 | 12.78° C | 28% | 1021.6 hPa | 0 mm | - | 9 W/m² | - |
* Rain latest hour (hover to see other rain measurements)
** Current wind speed in m/s (hover to see current wind gust speed)